contact:dominique.lefevre@mio.osupytheas.fr, maurice.libes@osupytheas.fr, didier.mallarino@osupytheas.fr
Project:EMSO http://www.emso-fr.org/EMSO-France
Depth: 2436.0 m
Title:EMSO Ligure Ouest : Data MII capteur MICROCAT
DateTime_Computer,Latitude,Longitude,Temperature,Conductivity,Pressure,DateTime_Instrument
DateTime_Computer,Latitude,Longitude,degC,S m-1,dbar,DateTime_Instrument
2022-06-13T00:00:25Z,42.805,6.029,13.3004,4.60036,2470.53,2022-6-13T02:02:08Z
2022-06-13T00:03:28Z,42.805,6.029,13.3005,4.60036,2470.52,2022-6-13T02:05:11Z
2022-06-13T00:06:31Z,42.805,6.029,13.3005,4.60035,2470.507,2022-6-13T02:08:14Z
2022-06-13T00:09:34Z,42.805,6.029,13.3004,4.60034,2470.544,2022-6-13T02:11:17Z
2022-06-13T00:12:37Z,42.805,6.029,13.3005,4.60035,2470.483,2022-6-13T02:14:20Z
2022-06-13T00:15:40Z,42.805,6.029,13.3005,4.60035,2470.52,2022-6-13T02:17:23Z
2022-06-13T00:18:43Z,42.805,6.029,13.3004,4.60036,2470.53,2022-6-13T02:20:27Z
2022-06-13T00:21:46Z,42.805,6.029,13.3006,4.60036,2470.52,2022-6-13T02:23:30Z
2022-06-13T00:24:50Z,42.805,6.029,13.3002,4.60036,2470.507,2022-6-13T02:26:33Z
2022-06-13T00:27:53Z,42.805,6.029,13.3003,4.60038,2470.52,2022-6-13T02:29:36Z
2022-06-13T00:30:56Z,42.805,6.029,13.3008,4.60036,2470.507,2022-6-13T02:32:39Z
2022-06-13T00:33:59Z,42.805,6.029,13.3003,4.60035,2470.507,2022-6-13T02:35:42Z
2022-06-13T00:37:02Z,42.805,6.029,13.3001,4.60036,2470.544,2022-6-13T02:38:45Z
2022-06-13T00:40:05Z,42.805,6.029,13.3008,4.60038,2470.483,2022-6-13T02:41:48Z
2022-06-13T00:43:08Z,42.805,6.029,13.3006,4.60035,2470.507,2022-6-13T02:44:52Z
2022-06-13T00:46:11Z,42.805,6.029,13.3006,4.60034,2470.507,2022-6-13T02:47:55Z
2022-06-13T00:49:15Z,42.805,6.029,13.3000,4.60036,2470.483,2022-6-13T02:50:58Z
2022-06-13T00:52:18Z,42.805,6.029,13.3000,4.60035,2470.507,2022-6-13T02:54:01Z
2022-06-13T00:55:21Z,42.805,6.029,13.3009,4.60035,2470.507,2022-6-13T02:57:04Z
2022-06-13T00:58:24Z,42.805,6.029,13.3006,4.60036,2470.53,2022-6-13T03:00:07Z
2022-06-13T01:01:27Z,42.805,6.029,13.3006,4.60035,2470.507,2022-6-13T03:03:10Z
2022-06-13T01:04:30Z,42.805,6.029,13.3008,4.60035,2470.46,2022-6-13T03:06:13Z
2022-06-13T01:07:33Z,42.805,6.029,13.3004,4.60035,2470.507,2022-6-13T03:09:17Z
2022-06-13T01:10:36Z,42.805,6.029,13.3003,4.60036,2470.53,2022-6-13T03:12:20Z
2022-06-13T01:13:40Z,42.805,6.029,13.3000,4.60038,2470.53,2022-6-13T03:15:23Z
2022-06-13T01:16:43Z,42.805,6.029,13.3003,4.60038,2470.507,2022-6-13T03:18:26Z
2022-06-13T01:19:46Z,42.805,6.029,13.3003,4.60036,2470.507,2022-6-13T03:21:29Z
2022-06-13T01:22:49Z,42.805,6.029,13.3004,4.60035,2470.507,2022-6-13T03:24:32Z
2022-06-13T01:25:52Z,42.805,6.029,13.3006,4.60036,2470.507,2022-6-13T03:27:35Z
2022-06-13T01:28:55Z,42.805,6.029,13.3003,4.60037,2470.507,2022-6-13T03:30:38Z
2022-06-13T01:31:58Z,42.805,6.029,13.3002,4.60035,2470.507,2022-6-13T03:33:42Z
2022-06-13T01:35:01Z,42.805,6.029,13.3003,4.60038,2470.52,2022-6-13T03:36:45Z
2022-06-13T01:38:05Z,42.805,6.029,13.3002,4.60036,2470.52,2022-6-13T03:39:48Z
2022-06-13T01:41:08Z,42.805,6.029,13.3003,4.60036,2470.53,2022-6-13T03:42:51Z
2022-06-13T01:44:11Z,42.805,6.029,13.3004,4.60036,2470.507,2022-6-13T03:45:54Z
2022-06-13T01:47:14Z,42.805,6.029,13.3009,4.60036,2470.53,2022-6-13T03:48:57Z
2022-06-13T01:50:17Z,42.805,6.029,13.3003,4.60036,2470.507,2022-6-13T03:52:00Z
2022-06-13T01:53:20Z,42.805,6.029,13.3007,4.60037,2470.53,2022-6-13T03:55:03Z
2022-06-13T01:56:23Z,42.805,6.029,13.3004,4.60035,2470.544,2022-6-13T03:58:06Z
2022-06-13T01:59:26Z,42.805,6.029,13.3004,4.60036,2470.553,2022-6-13T04:01:10Z
2022-06-13T02:02:29Z,42.805,6.029,13.3006,4.60037,2470.507,2022-6-13T04:04:13Z
2022-06-13T02:05:33Z,42.805,6.029,13.3003,4.60039,2470.544,2022-6-13T04:07:16Z
2022-06-13T02:08:36Z,42.805,6.029,13.3002,4.60036,2470.553,2022-6-13T04:10:19Z
2022-06-13T02:11:39Z,42.805,6.029,13.3004,4.60037,2470.53,2022-6-13T04:13:22Z
2022-06-13T02:14:42Z,42.805,6.029,13.3002,4.60036,2470.567,2022-6-13T04:16:25Z
2022-06-13T02:17:45Z,42.805,6.029,13.3004,4.60037,2470.544,2022-6-13T04:19:28Z
2022-06-13T02:20:48Z,42.805,6.029,13.3004,4.60037,2470.53,2022-6-13T04:22:31Z
2022-06-13T02:23:51Z,42.805,6.029,13.3004,4.60035,2470.567,2022-6-13T04:25:35Z
2022-06-13T02:26:54Z,42.805,6.029,13.3006,4.60036,2470.53,2022-6-13T04:28:38Z
2022-06-13T02:29:58Z,42.805,6.029,13.3004,4.60039,2470.553,2022-6-13T04:31:41Z
2022-06-13T02:33:01Z,42.805,6.029,13.3002,4.60040,2470.553,2022-6-13T04:34:44Z
2022-06-13T02:36:04Z,42.805,6.029,13.3004,4.60040,2470.577,2022-6-13T04:37:47Z
2022-06-13T02:39:07Z,42.805,6.029,13.3004,4.60038,2470.614,2022-6-13T04:40:50Z
2022-06-13T02:42:10Z,42.805,6.029,13.3006,4.60038,2470.53,2022-6-13T04:43:53Z
2022-06-13T02:45:13Z,42.805,6.029,13.3004,4.60037,2470.539,2022-6-13T04:46:56Z
2022-06-13T02:48:16Z,42.805,6.029,13.3007,4.60039,2470.567,2022-6-13T04:50:00Z
2022-06-13T02:51:19Z,42.805,6.029,13.3007,4.60039,2470.577,2022-6-13T04:53:03Z
2022-06-13T02:54:23Z,42.805,6.029,13.3004,4.60042,2470.544,2022-6-13T04:56:06Z
2022-06-13T02:57:26Z,42.805,6.029,13.3005,4.60036,2470.567,2022-6-13T04:59:09Z
2022-06-13T03:00:29Z,42.805,6.029,13.3004,4.60036,2470.553,2022-6-13T05:02:12Z
2022-06-13T03:03:32Z,42.805,6.029,13.3004,4.60036,2470.6,2022-6-13T05:05:15Z
2022-06-13T03:06:35Z,42.805,6.029,13.3005,4.60039,2470.577,2022-6-13T05:08:18Z
2022-06-13T03:09:38Z,42.805,6.029,13.3002,4.60037,2470.586,2022-6-13T05:11:21Z
2022-06-13T03:12:41Z,42.805,6.029,13.3006,4.60037,2470.6,2022-6-13T05:14:25Z
2022-06-13T03:15:44Z,42.805,6.029,13.2998,4.60037,2470.567,2022-6-13T05:17:28Z
2022-06-13T03:18:48Z,42.805,6.029,13.3006,4.60036,2470.624,2022-6-13T05:20:31Z
2022-06-13T03:21:51Z,42.805,6.029,13.3004,4.60036,2470.6,2022-6-13T05:23:34Z
2022-06-13T03:24:54Z,42.805,6.029,13.3004,4.60037,2470.637,2022-6-13T05:26:37Z
2022-06-13T03:27:57Z,42.805,6.029,13.3004,4.60036,2470.624,2022-6-13T05:29:40Z
2022-06-13T03:31:00Z,42.805,6.029,13.3004,4.60036,2470.614,2022-6-13T05:32:43Z
2022-06-13T03:34:03Z,42.805,6.029,13.3003,4.60040,2470.637,2022-6-13T05:35:46Z
2022-06-13T03:37:06Z,42.805,6.029,13.3004,4.60036,2470.6,2022-6-13T05:38:50Z
2022-06-13T03:40:09Z,42.805,6.029,13.3006,4.60037,2470.624,2022-6-13T05:41:53Z
2022-06-13T03:43:13Z,42.805,6.029,13.3007,4.60038,2470.6,2022-6-13T05:44:56Z
2022-06-13T03:46:16Z,42.805,6.029,13.3003,4.60038,2470.637,2022-6-13T05:47:59Z
2022-06-13T03:49:19Z,42.805,6.029,13.3004,4.60041,2470.624,2022-6-13T05:51:02Z
2022-06-13T03:52:22Z,42.805,6.029,13.3006,4.60037,2470.624,2022-6-13T05:54:05Z
2022-06-13T03:55:25Z,42.805,6.029,13.3005,4.60040,2470.6,2022-6-13T05:57:08Z
2022-06-13T03:58:28Z,42.805,6.029,13.3009,4.60042,2470.6,2022-6-13T06:00:11Z
2022-06-13T04:01:31Z,42.805,6.029,13.3000,4.60041,2470.646,2022-6-13T06:03:14Z
2022-06-13T04:04:34Z,42.805,6.029,13.3006,4.60039,2470.637,2022-6-13T06:06:18Z
2022-06-13T04:07:37Z,42.805,6.029,13.3006,4.60037,2470.624,2022-6-13T06:09:21Z
2022-06-13T04:10:41Z,42.805,6.029,13.3004,4.60037,2470.624,2022-6-13T06:12:24Z
2022-06-13T04:13:44Z,42.805,6.029,13.3004,4.60038,2470.67,2022-6-13T06:15:27Z
2022-06-13T04:16:47Z,42.805,6.029,13.3002,4.60037,2470.707,2022-6-13T06:18:30Z
2022-06-13T04:19:50Z,42.805,6.029,13.3004,4.60036,2470.67,2022-6-13T06:21:33Z
2022-06-13T04:22:53Z,42.805,6.029,13.3000,4.60039,2470.624,2022-6-13T06:24:36Z
2022-06-13T04:25:56Z,42.805,6.029,13.3002,4.60039,2470.67,2022-6-13T06:27:39Z
2022-06-13T04:28:59Z,42.805,6.029,13.3005,4.60036,2470.67,2022-6-13T06:30:43Z
2022-06-13T04:32:02Z,42.805,6.029,13.3008,4.60039,2470.646,2022-6-13T06:33:46Z
2022-06-13T04:35:06Z,42.805,6.029,13.3005,4.60038,2470.646,2022-6-13T06:36:49Z
2022-06-13T04:38:09Z,42.805,6.029,13.3009,4.60037,2470.661,2022-6-13T06:39:52Z
2022-06-13T04:41:12Z,42.805,6.029,13.3007,4.60040,2470.637,2022-6-13T06:42:55Z
2022-06-13T04:44:15Z,42.805,6.029,13.3007,4.60039,2470.646,2022-6-13T06:45:58Z
2022-06-13T04:47:18Z,42.805,6.029,13.3006,4.60039,2470.646,2022-6-13T06:49:01Z
2022-06-13T04:50:21Z,42.805,6.029,13.3005,4.60038,2470.646,2022-6-13T06:52:04Z
2022-06-13T04:53:24Z,42.805,6.029,13.3007,4.60037,2470.624,2022-6-13T06:55:08Z
2022-06-13T04:56:27Z,42.805,6.029,13.3005,4.60036,2470.67,2022-6-13T06:58:11Z
2022-06-13T04:59:31Z,42.805,6.029,13.3005,4.60037,2470.684,2022-6-13T07:01:14Z
2022-06-13T05:02:34Z,42.805,6.029,13.3004,4.60039,2470.684,2022-6-13T07:04:17Z
2022-06-13T05:05:37Z,42.805,6.029,13.3007,4.60039,2470.661,2022-6-13T07:07:20Z
2022-06-13T05:08:40Z,42.805,6.029,13.3011,4.60041,2470.661,2022-6-13T07:10:23Z
2022-06-13T05:11:43Z,42.805,6.029,13.3004,4.60040,2470.67,2022-6-13T07:13:26Z
2022-06-13T05:14:46Z,42.805,6.029,13.3004,4.60041,2470.707,2022-6-13T07:16:29Z
2022-06-13T05:17:49Z,42.805,6.029,13.3005,4.60038,2470.646,2022-6-13T07:19:33Z
2022-06-13T05:20:52Z,42.805,6.029,13.3002,4.60039,2470.633,2022-6-13T07:22:36Z
2022-06-13T05:23:56Z,42.805,6.029,13.3006,4.60038,2470.646,2022-6-13T07:25:39Z
2022-06-13T05:26:59Z,42.805,6.029,13.3003,4.60037,2470.67,2022-6-13T07:28:42Z
2022-06-13T05:30:02Z,42.805,6.029,13.3006,4.60039,2470.646,2022-6-13T07:31:45Z
2022-06-13T05:33:05Z,42.805,6.029,13.3006,4.60038,2470.661,2022-6-13T07:34:48Z
2022-06-13T05:36:08Z,42.805,6.029,13.3006,4.60037,2470.67,2022-6-13T07:37:51Z
2022-06-13T05:39:11Z,42.805,6.029,13.3005,4.60040,2470.67,2022-6-13T07:40:54Z
2022-06-13T05:42:14Z,42.805,6.029,13.3004,4.60039,2470.624,2022-6-13T07:43:58Z
2022-06-13T05:45:17Z,42.805,6.029,13.3009,4.60036,2470.646,2022-6-13T07:47:01Z
2022-06-13T05:48:21Z,42.805,6.029,13.3017,4.60050,2470.646,2022-6-13T07:50:04Z
2022-06-13T05:51:24Z,42.805,6.029,13.3011,4.60042,2470.661,2022-6-13T07:53:07Z
2022-06-13T05:54:27Z,42.805,6.029,13.3004,4.60044,2470.67,2022-6-13T07:56:10Z
2022-06-13T05:57:30Z,42.805,6.029,13.3009,4.60044,2470.707,2022-6-13T07:59:13Z
2022-06-13T06:00:33Z,42.805,6.029,13.3004,4.60039,2470.684,2022-6-13T08:02:16Z
2022-06-13T06:03:36Z,42.805,6.029,13.3007,4.60038,2470.637,2022-6-13T08:05:19Z
2022-06-13T06:06:39Z,42.805,6.029,13.3006,4.60038,2470.646,2022-6-13T08:08:22Z
2022-06-13T06:09:42Z,42.805,6.029,13.3001,4.60041,2470.646,2022-6-13T08:11:26Z
2022-06-13T06:12:45Z,42.805,6.029,13.3004,4.60046,2470.67,2022-6-13T08:14:29Z
2022-06-13T06:15:49Z,42.805,6.029,13.3019,4.60048,2470.67,2022-6-13T08:17:32Z
2022-06-13T06:18:52Z,42.805,6.029,13.3021,4.60062,2470.67,2022-6-13T08:20:35Z
2022-06-13T06:21:55Z,42.805,6.029,13.3013,4.60044,2470.684,2022-6-13T08:23:38Z
2022-06-13T06:24:58Z,42.805,6.029,13.3009,4.60046,2470.707,2022-6-13T08:26:41Z
2022-06-13T06:28:01Z,42.805,6.029,13.3027,4.60062,2470.646,2022-6-13T08:29:44Z
2022-06-13T06:31:04Z,42.805,6.029,13.3011,4.60055,2470.684,2022-6-13T08:32:47Z
2022-06-13T06:34:07Z,42.805,6.029,13.3009,4.60041,2470.684,2022-6-13T08:35:51Z
2022-06-13T06:37:10Z,42.805,6.029,13.3011,4.60039,2470.661,2022-6-13T08:38:54Z
2022-06-13T06:40:14Z,42.805,6.029,13.3025,4.60065,2470.646,2022-6-13T08:41:57Z
2022-06-13T06:43:17Z,42.805,6.029,13.3010,4.60057,2470.67,2022-6-13T08:45:00Z
2022-06-13T06:46:20Z,42.805,6.029,13.3013,4.60049,2470.646,2022-6-13T08:48:03Z
2022-06-13T06:49:23Z,42.805,6.029,13.3013,4.60054,2470.661,2022-6-13T08:51:06Z
2022-06-13T06:52:26Z,42.805,6.029,13.3033,4.60062,2470.661,2022-6-13T08:54:09Z
2022-06-13T06:55:29Z,42.805,6.029,13.3024,4.60044,2470.67,2022-6-13T08:57:12Z
2022-06-13T06:58:32Z,42.805,6.029,13.3028,4.60056,2470.661,2022-6-13T09:00:16Z
2022-06-13T07:01:35Z,42.805,6.029,13.3033,4.60069,2470.646,2022-6-13T09:03:19Z
2022-06-13T07:04:39Z,42.805,6.029,13.3039,4.60085,2470.646,2022-6-13T09:06:22Z
2022-06-13T07:07:42Z,42.805,6.029,13.3011,4.60064,2470.661,2022-6-13T09:09:25Z
2022-06-13T07:10:45Z,42.805,6.029,13.3025,4.60069,2470.684,2022-6-13T09:12:28Z
2022-06-13T07:13:48Z,42.805,6.029,13.3015,4.60093,2470.646,2022-6-13T09:15:31Z
2022-06-13T07:16:51Z,42.805,6.029,13.3041,4.60111,2470.646,2022-6-13T09:18:34Z
2022-06-13T07:19:54Z,42.805,6.029,13.3019,4.60104,2470.646,2022-6-13T09:21:37Z
2022-06-13T07:22:57Z,42.805,6.029,13.3035,4.60119,2470.661,2022-6-13T09:24:41Z
2022-06-13T07:26:00Z,42.805,6.029,13.3027,4.60119,2470.624,2022-6-13T09:27:44Z
2022-06-13T07:29:03Z,42.805,6.029,13.3028,4.60096,2470.637,2022-6-13T09:30:47Z
2022-06-13T07:32:07Z,42.805,6.029,13.3029,4.60091,2470.661,2022-6-13T09:33:50Z
2022-06-13T07:35:10Z,42.805,6.029,13.3024,4.60086,2470.624,2022-6-13T09:36:53Z
2022-06-13T07:38:13Z,42.805,6.029,13.3025,4.60098,2470.6,2022-6-13T09:39:56Z
2022-06-13T07:41:16Z,42.805,6.029,13.3033,4.60104,2470.637,2022-6-13T09:42:59Z
2022-06-13T07:44:19Z,42.805,6.029,13.3036,4.60089,2470.661,2022-6-13T09:46:02Z
2022-06-13T07:47:22Z,42.805,6.029,13.3032,4.60103,2470.6,2022-6-13T09:49:05Z
2022-06-13T07:50:25Z,42.805,6.029,13.3029,4.60089,2470.624,2022-6-13T09:52:09Z
2022-06-13T07:53:28Z,42.805,6.029,13.3029,4.60104,2470.646,2022-6-13T09:55:12Z
2022-06-13T07:56:32Z,42.805,6.029,13.3015,4.60106,2470.646,2022-6-13T09:58:15Z
2022-06-13T07:59:35Z,42.805,6.029,13.3026,4.60086,2470.684,2022-6-13T10:01:18Z
2022-06-13T08:02:38Z,42.805,6.029,13.3041,4.60125,2470.6,2022-6-13T10:04:21Z
2022-06-13T08:05:41Z,42.805,6.029,13.3025,4.60109,2470.624,2022-6-13T10:07:24Z
2022-06-13T08:08:44Z,42.805,6.029,13.3030,4.60101,2470.646,2022-6-13T10:10:27Z
2022-06-13T08:11:47Z,42.805,6.029,13.3020,4.60114,2470.67,2022-6-13T10:13:30Z
2022-06-13T08:14:50Z,42.805,6.029,13.3027,4.60145,2470.6,2022-6-13T10:16:34Z
2022-06-13T08:17:53Z,42.805,6.029,13.3031,4.60101,2470.577,2022-6-13T10:19:37Z
2022-06-13T08:20:57Z,42.805,6.029,13.3015,4.60101,2470.624,2022-6-13T10:22:40Z
2022-06-13T08:24:00Z,42.805,6.029,13.3026,4.60096,2470.624,2022-6-13T10:25:43Z
2022-06-13T08:27:03Z,42.805,6.029,13.3036,4.60101,2470.624,2022-6-13T10:28:46Z
2022-06-13T08:30:06Z,42.805,6.029,13.3034,4.60101,2470.577,2022-6-13T10:31:49Z
2022-06-13T08:33:09Z,42.805,6.029,13.3028,4.60072,2470.6,2022-6-13T10:34:52Z
2022-06-13T08:36:12Z,42.805,6.029,13.3029,4.60114,2470.6,2022-6-13T10:37:55Z
2022-06-13T08:39:15Z,42.805,6.029,13.3021,4.60112,2470.614,2022-6-13T10:40:59Z
2022-06-13T08:42:19Z,42.805,6.029,13.3021,4.60132,2470.637,2022-6-13T10:44:02Z
2022-06-13T08:45:22Z,42.805,6.029,13.3015,4.60111,2470.553,2022-6-13T10:47:05Z
2022-06-13T08:48:25Z,42.805,6.029,13.3010,4.60122,2470.577,2022-6-13T10:50:08Z
2022-06-13T08:51:28Z,42.805,6.029,13.3026,4.60129,2470.6,2022-6-13T10:53:11Z
2022-06-13T08:54:31Z,42.805,6.029,13.3012,4.60102,2470.591,2022-6-13T10:56:14Z
2022-06-13T08:57:34Z,42.805,6.029,13.3017,4.60063,2470.577,2022-6-13T10:59:17Z
2022-06-13T09:00:37Z,42.805,6.029,13.3034,4.60116,2470.567,2022-6-13T11:02:20Z
2022-06-13T09:03:40Z,42.805,6.029,13.3020,4.60097,2470.577,2022-6-13T11:05:24Z
2022-06-13T09:06:43Z,42.805,6.029,13.3015,4.60084,2470.577,2022-6-13T11:08:27Z
2022-06-13T09:09:47Z,42.805,6.029,13.3019,4.60062,2470.591,2022-6-13T11:11:30Z
2022-06-13T09:12:50Z,42.805,6.029,13.3013,4.60064,2470.577,2022-6-13T11:14:33Z
2022-06-13T09:15:53Z,42.805,6.029,13.3014,4.60072,2470.553,2022-6-13T11:17:36Z
2022-06-13T09:18:56Z,42.805,6.029,13.3023,4.60082,2470.577,2022-6-13T11:20:39Z
2022-06-13T09:21:59Z,42.805,6.029,13.3019,4.60071,2470.567,2022-6-13T11:23:42Z
2022-06-13T09:25:02Z,42.805,6.029,13.3029,4.60097,2470.553,2022-6-13T11:26:45Z
2022-06-13T09:28:05Z,42.805,6.029,13.3006,4.60102,2470.53,2022-6-13T11:29:49Z
2022-06-13T09:31:08Z,42.805,6.029,13.3014,4.60093,2470.553,2022-6-13T11:32:52Z
2022-06-13T09:34:12Z,42.805,6.029,13.3014,4.60057,2470.553,2022-6-13T11:35:55Z
2022-06-13T09:37:15Z,42.805,6.029,13.3047,4.60119,2470.544,2022-6-13T11:38:58Z
2022-06-13T09:40:18Z,42.805,6.029,13.3040,4.60097,2470.53,2022-6-13T11:42:01Z
2022-06-13T09:43:21Z,42.805,6.029,13.3018,4.60105,2470.53,2022-6-13T11:45:04Z
2022-06-13T09:46:24Z,42.805,6.029,13.3022,4.60112,2470.52,2022-6-13T11:48:07Z
2022-06-13T09:49:27Z,42.805,6.029,13.3019,4.60137,2470.53,2022-6-13T11:51:11Z
2022-06-13T09:52:30Z,42.805,6.029,13.3029,4.60107,2470.52,2022-6-13T11:54:14Z
2022-06-13T09:55:34Z,42.805,6.029,13.3021,4.60087,2470.553,2022-6-13T11:57:17Z
2022-06-13T09:58:37Z,42.805,6.029,13.3027,4.60126,2470.544,2022-6-13T12:00:20Z
2022-06-13T10:01:40Z,42.805,6.029,13.3039,4.60110,2470.553,2022-6-13T12:03:23Z
2022-06-13T10:04:43Z,42.805,6.029,13.3029,4.60120,2470.544,2022-6-13T12:06:26Z
2022-06-13T10:07:46Z,42.805,6.029,13.3046,4.60087,2470.507,2022-6-13T12:09:29Z
2022-06-13T10:10:49Z,42.805,6.029,13.3044,4.60119,2470.53,2022-6-13T12:12:32Z
2022-06-13T10:13:52Z,42.805,6.029,13.3009,4.60092,2470.544,2022-6-13T12:15:36Z
2022-06-13T10:16:55Z,42.805,6.029,13.3014,4.60095,2470.52,2022-6-13T12:18:39Z
2022-06-13T10:19:59Z,42.805,6.029,13.3006,4.60110,2470.53,2022-6-13T12:21:42Z
2022-06-13T10:23:02Z,42.805,6.029,13.3029,4.60103,2470.52,2022-6-13T12:24:45Z
2022-06-13T10:26:05Z,42.805,6.029,13.3010,4.60102,2470.553,2022-6-13T12:27:48Z
2022-06-13T10:29:08Z,42.805,6.029,13.3021,4.60079,2470.507,2022-6-13T12:30:51Z
2022-06-13T10:32:11Z,42.805,6.029,13.3031,4.60123,2470.483,2022-6-13T12:33:54Z
2022-06-13T10:35:14Z,42.805,6.029,13.3036,4.60146,2470.507,2022-6-13T12:36:57Z
2022-06-13T10:38:17Z,42.805,6.029,13.3036,4.60144,2470.507,2022-6-13T12:40:01Z
2022-06-13T10:41:20Z,42.805,6.029,13.3039,4.60134,2470.53,2022-6-13T12:43:04Z
2022-06-13T10:44:24Z,42.805,6.029,13.3030,4.60084,2470.53,2022-6-13T12:46:07Z
2022-06-13T10:47:27Z,42.805,6.029,13.3027,4.60099,2470.507,2022-6-13T12:49:10Z
2022-06-13T10:50:30Z,42.805,6.029,13.3037,4.60078,2470.507,2022-6-13T12:52:13Z
2022-06-13T10:53:33Z,42.805,6.029,13.3049,4.60099,2470.53,2022-6-13T12:55:16Z
2022-06-13T10:56:36Z,42.805,6.029,13.3015,4.60146,2470.507,2022-6-13T12:58:19Z
2022-06-13T10:59:39Z,42.805,6.029,13.3028,4.60084,2470.483,2022-6-13T13:01:22Z
2022-06-13T11:02:42Z,42.805,6.029,13.3022,4.60081,2470.483,2022-6-13T13:04:26Z
2022-06-13T11:05:45Z,42.805,6.029,13.3020,4.60117,2470.507,2022-6-13T13:07:29Z
2022-06-13T11:08:49Z,42.805,6.029,13.3026,4.60112,2470.497,2022-6-13T13:10:32Z
2022-06-13T11:11:52Z,42.805,6.029,13.3049,4.60103,2470.507,2022-6-13T13:13:35Z
2022-06-13T11:14:55Z,42.805,6.029,13.3036,4.60110,2470.497,2022-6-13T13:16:38Z
2022-06-13T11:17:58Z,42.805,6.029,13.3026,4.60125,2470.497,2022-6-13T13:19:41Z
2022-06-13T11:21:01Z,42.805,6.029,13.3026,4.60089,2470.497,2022-6-13T13:22:44Z
2022-06-13T11:24:04Z,42.805,6.029,13.3048,4.60109,2470.483,2022-6-13T13:25:47Z
2022-06-13T11:27:07Z,42.805,6.029,13.3029,4.60108,2470.483,2022-6-13T13:28:51Z
2022-06-13T11:30:10Z,42.805,6.029,13.3021,4.60155,2470.46,2022-6-13T13:31:54Z
2022-06-13T11:33:14Z,42.805,6.029,13.3036,4.60093,2470.474,2022-6-13T13:34:57Z
2022-06-13T11:36:17Z,42.805,6.029,13.3038,4.60087,2470.483,2022-6-13T13:38:00Z
2022-06-13T11:39:20Z,42.805,6.029,13.3021,4.60068,2470.52,2022-6-13T13:41:03Z
2022-06-13T11:42:23Z,42.805,6.029,13.3027,4.60086,2470.45,2022-6-13T13:44:06Z
2022-06-13T11:45:26Z,42.805,6.029,13.3031,4.60102,2470.497,2022-6-13T13:47:09Z
2022-06-13T11:48:29Z,42.805,6.029,13.3032,4.60077,2470.474,2022-6-13T13:50:12Z
2022-06-13T11:51:32Z,42.805,6.029,13.3019,4.60066,2470.46,2022-6-13T13:53:16Z
2022-06-13T11:54:35Z,42.805,6.029,13.3029,4.60106,2470.45,2022-6-13T13:56:19Z
2022-06-13T11:57:39Z,42.805,6.029,13.3036,4.60096,2470.483,2022-6-13T13:59:22Z
2022-06-13T12:00:42Z,42.805,6.029,13.3048,4.60114,2470.46,2022-6-13T14:02:25Z
2022-06-13T12:03:45Z,42.805,6.029,13.3041,4.60077,2470.474,2022-6-13T14:05:28Z
2022-06-13T12:06:48Z,42.805,6.029,13.3032,4.60104,2470.474,2022-6-13T14:08:31Z
2022-06-13T12:09:51Z,42.805,6.029,13.3063,4.60094,2470.474,2022-6-13T14:11:34Z
2022-06-13T12:12:54Z,42.805,6.029,13.3056,4.60102,2470.46,2022-6-13T14:14:37Z
2022-06-13T12:15:57Z,42.805,6.029,13.3082,4.60088,2470.45,2022-6-13T14:17:41Z
2022-06-13T12:19:00Z,42.805,6.029,13.3049,4.60096,2470.474,2022-6-13T14:20:44Z
2022-06-13T12:22:04Z,42.805,6.029,13.3073,4.60059,2470.46,2022-6-13T14:23:47Z
2022-06-13T12:25:07Z,42.805,6.029,13.3050,4.60114,2470.46,2022-6-13T14:26:50Z
2022-06-13T12:28:10Z,42.805,6.029,13.3073,4.60103,2470.497,2022-6-13T14:29:53Z
2022-06-13T12:31:13Z,42.805,6.029,13.3073,4.60092,2470.46,2022-6-13T14:32:56Z
2022-06-13T12:34:16Z,42.805,6.029,13.3062,4.60075,2470.45,2022-6-13T14:35:59Z
2022-06-13T12:37:19Z,42.805,6.029,13.3026,4.60095,2470.45,2022-6-13T14:39:02Z
2022-06-13T12:40:22Z,42.805,6.029,13.3035,4.60094,2470.46,2022-6-13T14:42:06Z
2022-06-13T12:43:25Z,42.805,6.029,13.3053,4.60084,2470.45,2022-6-13T14:45:09Z
2022-06-13T12:46:29Z,42.805,6.029,13.3036,4.60090,2470.474,2022-6-13T14:48:12Z
2022-06-13T12:49:32Z,42.805,6.029,13.3051,4.60109,2470.483,2022-6-13T14:51:15Z
2022-06-13T12:52:35Z,42.805,6.029,13.3048,4.60091,2470.46,2022-6-13T14:54:18Z
2022-06-13T12:55:38Z,42.805,6.029,13.3049,4.60064,2470.46,2022-6-13T14:57:21Z
2022-06-13T12:58:41Z,42.805,6.029,13.3020,4.60051,2470.46,2022-6-13T15:00:24Z
2022-06-13T13:01:44Z,42.805,6.029,13.3057,4.60079,2470.45,2022-6-13T15:03:27Z
2022-06-13T13:04:47Z,42.805,6.029,13.3046,4.60066,2470.483,2022-6-13T15:06:31Z
2022-06-13T13:07:50Z,42.805,6.029,13.3042,4.60073,2470.437,2022-6-13T15:09:34Z
2022-06-13T13:10:54Z,42.805,6.029,13.3039,4.60107,2470.437,2022-6-13T15:12:37Z
2022-06-13T13:13:57Z,42.805,6.029,13.3046,4.60072,2470.474,2022-6-13T15:15:40Z
2022-06-13T13:17:00Z,42.805,6.029,13.3034,4.60081,2470.437,2022-6-13T15:18:43Z
2022-06-13T13:20:03Z,42.805,6.029,13.3027,4.60080,2470.437,2022-6-13T15:21:46Z
2022-06-13T13:23:06Z,42.805,6.029,13.3044,4.60070,2470.46,2022-6-13T15:24:49Z
2022-06-13T13:26:09Z,42.805,6.029,13.3019,4.60050,2470.46,2022-6-13T15:27:52Z
2022-06-13T13:29:12Z,42.805,6.029,13.3002,4.60044,2470.474,2022-6-13T15:30:56Z
2022-06-13T13:32:15Z,42.805,6.029,13.3008,4.60070,2470.47,2022-6-13T15:33:59Z
2022-06-13T13:35:19Z,42.805,6.029,13.3039,4.60063,2470.474,2022-6-13T15:37:02Z
2022-06-13T13:38:22Z,42.805,6.029,13.3039,4.60063,2470.46,2022-6-13T15:40:05Z
2022-06-13T13:41:25Z,42.805,6.029,13.3032,4.60096,2470.437,2022-6-13T15:43:08Z
2022-06-13T13:44:28Z,42.805,6.029,13.3046,4.60107,2470.46,2022-6-13T15:46:11Z
2022-06-13T13:47:31Z,42.805,6.029,13.3039,4.60102,2470.46,2022-6-13T15:49:14Z
2022-06-13T13:50:34Z,42.805,6.029,13.3054,4.60082,2470.46,2022-6-13T15:52:17Z
2022-06-13T13:53:37Z,42.805,6.029,13.3051,4.60072,2470.47,2022-6-13T15:55:21Z
2022-06-13T13:56:41Z,42.805,6.029,13.3054,4.60079,2470.497,2022-6-13T15:58:24Z
2022-06-13T13:59:44Z,42.805,6.029,13.3021,4.60074,2470.474,2022-6-13T16:01:27Z
2022-06-13T14:02:47Z,42.805,6.029,13.3016,4.60085,2470.483,2022-6-13T16:04:30Z
2022-06-13T14:05:50Z,42.805,6.029,13.3036,4.60089,2470.46,2022-6-13T16:07:33Z
2022-06-13T14:08:53Z,42.805,6.029,13.3043,4.60077,2470.483,2022-6-13T16:10:36Z
2022-06-13T14:11:56Z,42.805,6.029,13.3035,4.60051,2470.483,2022-6-13T16:13:39Z
2022-06-13T14:14:59Z,42.805,6.029,13.3033,4.60058,2470.497,2022-6-13T16:16:43Z
2022-06-13T14:18:02Z,42.805,6.029,13.3024,4.60068,2470.483,2022-6-13T16:19:46Z
2022-06-13T14:21:06Z,42.805,6.029,13.3025,4.60043,2470.474,2022-6-13T16:22:49Z
2022-06-13T14:24:09Z,42.805,6.029,13.3018,4.60055,2470.52,2022-6-13T16:25:52Z
2022-06-13T14:27:12Z,42.805,6.029,13.3035,4.60074,2470.544,2022-6-13T16:28:55Z
2022-06-13T14:30:15Z,42.805,6.029,13.3024,4.60045,2470.46,2022-6-13T16:31:58Z
2022-06-13T14:33:18Z,42.805,6.029,13.3044,4.60074,2470.507,2022-6-13T16:35:01Z
2022-06-13T14:36:21Z,42.805,6.029,13.3004,4.60037,2470.483,2022-6-13T16:38:04Z
2022-06-13T14:39:24Z,42.805,6.029,13.3027,4.60057,2470.493,2022-6-13T16:41:08Z
2022-06-13T14:42:27Z,42.805,6.029,13.3036,4.60054,2470.507,2022-6-13T16:44:11Z
2022-06-13T14:45:31Z,42.805,6.029,13.3025,4.60066,2470.52,2022-6-13T16:47:14Z
2022-06-13T14:48:34Z,42.805,6.029,13.3025,4.60059,2470.52,2022-6-13T16:50:17Z
2022-06-13T14:51:37Z,42.805,6.029,13.3022,4.60064,2470.507,2022-6-13T16:53:20Z
2022-06-13T14:54:40Z,42.805,6.029,13.3040,4.60081,2470.544,2022-6-13T16:56:23Z
2022-06-13T14:57:43Z,42.805,6.029,13.3014,4.60055,2470.567,2022-6-13T16:59:26Z
2022-06-13T15:00:46Z,42.805,6.029,13.3031,4.60052,2470.53,2022-6-13T17:02:29Z
2022-06-13T15:03:49Z,42.805,6.029,13.3013,4.60040,2470.567,2022-6-13T17:05:33Z
2022-06-13T15:06:52Z,42.805,6.029,13.3013,4.60039,2470.567,2022-6-13T17:08:36Z
2022-06-13T15:09:56Z,42.805,6.029,13.3009,4.60037,2470.53,2022-6-13T17:11:39Z
2022-06-13T15:12:59Z,42.805,6.029,13.3022,4.60055,2470.577,2022-6-13T17:14:42Z